Time,TemperatureF,DewpointF,PressureIn,WindDirection,WindDirectionDegrees,WindSpeedMPH,WindSpeedGustMPH,Humidity,HourlyPrecipIn,Conditions,Clouds,dailyrainin,SolarRadiationWatts/m^2,SoftwareType,DateUTC
2013-07-04 00:01:00,76.5,73.7,30.22,SW,214,0.0,0.0,91,0.00,,,0.00,0,Wunderground v.1.15,2013-07-04 04:01:00,
2013-07-04 00:02:00,76.4,73.6,30.22,SW,214,0.0,0.0,91,0.00,,,0.00,0,Wunderground v.1.15,2013-07-04 04:02:00,
2013-07-04 00:06:00,76.4,73.6,30.22,SW,214,0.0,0.0,91,0.00,,,0.00,0,Wunderground v.1.15,2013-07-04 04:06:00,
2013-07-04 00:07:00,76.4,73.6,30.21,SW,214,0.0,0.0,91,0.00,,,0.00,0,Wunderground v.1.15,2013-07-04 04:07:00,
2013-07-04 00:13:00,76.3,73.5,30.21,SW,217,0.0,0.0,91,0.00,,,0.00,0,Wunderground v.1.15,2013-07-04 04:13:00,
2013-07-04 00:18:00,76.2,73.4,30.22,SW,217,3.0,3.0,91,0.00,,,0.00,0,Wunderground v.1.15,2013-07-04 04:18:00,
2013-07-04 00:24:00,76.2,73.4,30.22,SW,217,0.0,0.0,91,0.00,,,0.00,0,Wunderground v.1.15,2013-07-04 04:24:00,
2013-07-04 00:30:00,76.2,73.4,30.22,SW,222,0.0,0.0,91,0.00,,,0.00,0,Wunderground v.1.15,2013-07-04 04:30:00,
2013-07-04 00:36:00,76.1,73.3,30.22,SW,219,0.0,0.0,91,0.00,,,0.00,0,Wunderground v.1.15,2013-07-04 04:36:00,
2013-07-04 00:41:00,76.0,73.2,30.22,SW,219,0.0,0.0,91,0.00,,,0.00,0,Wunderground v.1.15,2013-07-04 04:41:00,
2013-07-04 00:46:00,76.0,73.2,30.22,SW,219,0.0,0.0,91,0.00,,,0.00,0,Wunderground v.1.15,2013-07-04 04:46:00,
2013-07-04 00:52:00,75.9,73.1,30.22,SW,219,0.0,0.0,91,0.00,,,0.00,0,Wunderground v.1.15,2013-07-04 04:52:00,
2013-07-04 00:58:00,75.9,73.1,30.22,SW,219,0.0,0.0,91,0.00,,,0.00,0,Wunderground v.1.15,2013-07-04 04:58:00,
2013-07-04 01:03:00,75.8,73.0,30.22,SW,219,0.0,0.0,91,0.00,,,0.00,0,Wunderground v.1.15,2013-07-04 05:03:00,
2013-07-04 01:09:00,75.8,73.0,30.21,SW,218,3.0,3.0,91,0.00,,,0.00,0,Wunderground v.1.15,2013-07-04 05:09:00,
2013-07-04 01:15:00,75.7,72.9,30.21,SW,218,0.0,1.0,91,0.00,,,0.00,0,Wunderground v.1.15,2013-07-04 05:15:00,
2013-07-04 01:21:00,75.7,72.9,30.21,SW,232,0.0,0.0,91,0.00,,,0.00,0,Wunderground v.1.15,2013-07-04 05:21:00,
2013-07-04 01:26:00,75.7,73.2,30.21,SW,233,0.0,3.0,92,0.00,,,0.00,0,Wunderground v.1.15,2013-07-04 05:26:00,
2013-07-04 01:32:00,75.7,73.2,30.21,SW,231,0.0,0.0,92,0.00,,,0.00,0,Wunderground v.1.15,2013-07-04 05:32:00,
2013-07-04 01:38:00,75.6,73.1,30.21,WSW,239,0.0,4.0,92,0.00,,,0.00,0,Wunderground v.1.15,2013-07-04 05:38:00,
2013-07-04 01:44:00,75.6,73.1,30.21,SW,225,2.0,2.0,92,0.00,,,0.00,0,Wunderground v.1.15,2013-07-04 05:44:00,
2013-07-04 01:49:00,75.6,73.1,30.21,SSW,206,0.0,4.0,92,0.00,,,0.00,0,Wunderground v.1.15,2013-07-04 05:49:00,
2013-07-04 01:55:00,75.6,73.1,30.21,SSW,209,0.0,1.0,92,0.00,,,0.00,0,Wunderground v.1.15,2013-07-04 05:55:00,
2013-07-04 02:00:00,75.6,73.1,30.21,SSW,209,0.0,0.0,92,0.00,,,0.00,0,Wunderground v.1.15,2013-07-04 06:00:00,
2013-07-04 02:05:00,75.5,73.0,30.21,SSW,210,0.0,2.0,92,0.00,,,0.00,0,Wunderground v.1.15,2013-07-04 06:05:00,
2013-07-04 02:10:00,75.5,73.0,30.21,SW,220,0.0,1.0,92,0.00,,,0.00,0,Wunderground v.1.15,2013-07-04 06:10:00,
2013-07-04 02:15:00,75.5,73.0,30.21,SW,220,0.0,1.0,92,0.00,,,0.00,0,Wunderground v.1.15,2013-07-04 06:15:00,
2013-07-04 02:20:00,75.4,72.9,30.21,SW,220,0.0,0.0,92,0.00,,,0.00,0,Wunderground v.1.15,2013-07-04 06:20:00,
2013-07-04 02:25:00,75.3,72.8,30.21,SW,223,0.0,5.0,92,0.00,,,0.00,0,Wunderground v.1.15,2013-07-04 06:25:00,
2013-07-04 02:31:00,75.3,72.8,30.21,SW,225,0.0,4.0,92,0.00,,,0.00,0,Wunderground v.1.15,2013-07-04 06:31:00,
2013-07-04 02:36:00,75.3,72.8,30.21,SW,225,0.0,4.0,92,0.00,,,0.00,0,Wunderground v.1.15,2013-07-04 06:36:00,
2013-07-04 02:41:00,75.2,72.7,30.21,SW,225,0.0,0.0,92,0.00,,,0.00,0,Wunderground v.1.15,2013-07-04 06:41:00,
2013-07-04 02:46:00,75.1,72.6,30.21,SW,225,0.0,0.0,92,0.00,,,0.00,0,Wunderground v.1.15,2013-07-04 06:46:00,
2013-07-04 02:51:00,75.1,72.6,30.21,SW,225,0.0,0.0,92,0.00,,,0.00,0,Wunderground v.1.15,2013-07-04 06:51:00,
2013-07-04 02:56:00,75.0,72.5,30.21,SW,215,0.0,6.0,92,0.00,,,0.00,0,Wunderground v.1.15,2013-07-04 06:56:00,
2013-07-04 03:01:00,74.9,72.4,30.21,SW,217,0.0,0.0,92,0.00,,,0.00,0,Wunderground v.1.15,2013-07-04 07:01:00,
2013-07-04 03:06:00,74.9,72.4,30.21,SW,217,0.0,0.0,92,0.00,,,0.00,0,Wunderground v.1.15,2013-07-04 07:06:00,
2013-07-04 03:11:00,74.9,72.7,30.21,SW,217,0.0,1.0,93,0.00,,,0.00,0,Wunderground v.1.15,2013-07-04 07:11:00,
2013-07-04 03:16:00,74.8,72.3,30.21,SW,217,0.0,1.0,92,0.00,,,0.00,0,Wunderground v.1.15,2013-07-04 07:16:00,
2013-07-04 03:21:00,74.8,72.6,30.21,SW,220,0.0,5.0,93,0.00,,,0.00,0,Wunderground v.1.15,2013-07-04 07:21:00,
2013-07-04 03:26:00,74.8,72.6,30.20,SW,220,0.0,5.0,93,0.00,,,0.00,0,Wunderground v.1.15,2013-07-04 07:26:00,
2013-07-04 03:31:00,74.8,72.6,30.20,SW,219,0.0,0.0,93,0.00,,,0.00,0,Wunderground v.1.15,2013-07-04 07:31:00,
2013-07-04 03:36:00,74.7,72.5,30.20,SW,219,0.0,2.0,93,0.00,,,0.00,0,Wunderground v.1.15,2013-07-04 07:36:00,
2013-07-04 03:41:00,74.7,72.5,30.20,SW,219,0.0,4.0,93,0.00,,,0.00,0,Wunderground v.1.15,2013-07-04 07:41:00,
2013-07-04 03:47:00,74.7,72.5,30.20,SSW,209,0.0,4.0,93,0.00,,,0.00,0,Wunderground v.1.15,2013-07-04 07:47:00,
2013-07-04 03:52:00,74.7,72.5,30.20,SSW,209,0.0,0.0,93,0.00,,,0.00,0,Wunderground v.1.15,2013-07-04 07:52:00,
2013-07-04 03:57:00,74.6,72.4,30.21,SSW,210,0.0,2.0,93,0.00,,,0.00,0,Wunderground v.1.15,2013-07-04 07:57:00,
2013-07-04 04:02:00,74.6,72.4,30.21,SSW,211,0.0,0.0,93,0.00,,,0.00,0,Wunderground v.1.15,2013-07-04 08:02:00,
2013-07-04 04:07:00,74.5,72.3,30.21,SSW,211,0.0,3.0,93,0.00,,,0.00,0,Wunderground v.1.15,2013-07-04 08:07:00,
2013-07-04 04:12:00,74.5,72.3,30.20,SW,229,0.0,6.0,93,0.00,,,0.00,0,Wunderground v.1.15,2013-07-04 08:12:00,
2013-07-04 04:17:00,74.5,72.3,30.21,SW,221,0.0,6.0,93,0.00,,,0.00,0,Wunderground v.1.15,2013-07-04 08:17:00,
2013-07-04 04:22:00,74.4,72.2,30.21,SW,221,0.0,1.0,93,0.00,,,0.00,0,Wunderground v.1.15,2013-07-04 08:22:00,
2013-07-04 04:27:00,74.4,72.2,30.20,SW,221,0.0,5.0,93,0.00,,,0.00,0,Wunderground v.1.15,2013-07-04 08:27:00,
2013-07-04 04:32:00,74.4,72.2,30.21,SW,217,1.0,7.0,93,0.00,,,0.00,0,Wunderground v.1.15,2013-07-04 08:32:00,
2013-07-04 04:37:00,74.3,72.1,30.21,SW,221,0.0,7.0,93,0.00,,,0.00,0,Wunderground v.1.15,2013-07-04 08:37:00,
2013-07-04 04:42:00,74.3,72.5,30.21,SW,219,0.0,1.0,94,0.00,,,0.00,0,Wunderground v.1.15,2013-07-04 08:42:00,
2013-07-04 04:47:00,74.2,72.4,30.21,SW,219,0.0,1.0,94,0.00,,,0.00,0,Wunderground v.1.15,2013-07-04 08:47:00,
2013-07-04 04:52:00,74.2,72.4,30.21,SW,219,0.0,0.0,94,0.00,,,0.00,0,Wunderground v.1.15,2013-07-04 08:52:00,
2013-07-04 04:57:00,74.2,72.0,30.22,SW,221,0.0,2.0,93,0.00,,,0.00,0,Wunderground v.1.15,2013-07-04 08:57:00,
2013-07-04 05:02:00,74.1,71.9,30.21,SW,221,0.0,1.0,93,0.00,,,0.00,0,Wunderground v.1.15,2013-07-04 09:02:00,
2013-07-04 05:07:00,74.1,72.3,30.22,SW,221,0.0,1.0,94,0.00,,,0.00,0,Wunderground v.1.15,2013-07-04 09:07:00,
2013-07-04 05:13:00,74.0,72.2,30.22,SW,221,0.0,2.0,94,0.00,,,0.00,0,Wunderground v.1.15,2013-07-04 09:13:00,
2013-07-04 05:18:00,74.0,72.2,30.22,SW,221,0.0,2.0,94,0.00,,,0.00,0,Wunderground v.1.15,2013-07-04 09:18:00,
2013-07-04 05:23:00,73.9,72.1,30.22,SW,221,0.0,0.0,94,0.00,,,0.00,0,Wunderground v.1.15,2013-07-04 09:23:00,
2013-07-04 05:28:00,73.8,72.0,30.22,SW,221,0.0,0.0,94,0.00,,,0.00,0,Wunderground v.1.15,2013-07-04 09:28:00,
2013-07-04 05:33:00,73.8,72.0,30.22,SW,221,0.0,0.0,94,0.00,,,0.00,0,Wunderground v.1.15,2013-07-04 09:33:00,
2013-07-04 05:38:00,73.8,72.0,30.22,SW,221,0.0,0.0,94,0.00,,,0.00,0,Wunderground v.1.15,2013-07-04 09:38:00,
2013-07-04 05:43:00,73.7,71.9,30.22,SW,221,0.0,0.0,94,0.00,,,0.00,5,Wunderground v.1.15,2013-07-04 09:43:00,
2013-07-04 05:48:00,73.7,71.9,30.22,SW,221,0.0,0.0,94,0.00,,,0.00,7,Wunderground v.1.15,2013-07-04 09:48:00,
2013-07-04 05:53:00,73.7,71.9,30.22,SW,221,0.0,0.0,94,0.00,,,0.00,11,Wunderground v.1.15,2013-07-04 09:53:00,
2013-07-04 05:58:00,73.7,71.9,30.22,SW,221,0.0,0.0,94,0.00,,,0.00,14,Wunderground v.1.15,2013-07-04 09:58:00,
2013-07-04 06:03:00,73.7,71.9,30.22,SW,221,0.0,0.0,94,0.00,,,0.00,19,Wunderground v.1.15,2013-07-04 10:03:00,
2013-07-04 06:08:00,73.7,71.9,30.22,SW,221,0.0,0.0,94,0.00,,,0.00,21,Wunderground v.1.15,2013-07-04 10:08:00,
2013-07-04 06:13:00,73.7,71.9,30.23,SW,221,0.0,0.0,94,0.00,,,0.00,25,Wunderground v.1.15,2013-07-04 10:13:00,
2013-07-04 06:18:00,73.8,72.0,30.23,SW,221,1.0,2.0,94,0.00,,,0.00,21,Wunderground v.1.15,2013-07-04 10:18:00,
2013-07-04 06:23:00,73.9,72.1,30.23,WSW,246,0.0,5.0,94,0.00,,,0.00,28,Wunderground v.1.15,2013-07-04 10:23:00,
2013-07-04 06:28:00,74.0,72.2,30.23,WSW,248,0.0,5.0,94,0.00,,,0.00,26,Wunderground v.1.15,2013-07-04 10:28:00,
2013-07-04 06:33:00,74.1,72.3,30.23,WSW,248,0.0,3.0,94,0.00,,,0.00,30,Wunderground v.1.15,2013-07-04 10:33:00,
2013-07-04 06:38:00,74.1,72.3,30.23,WSW,248,0.0,3.0,94,0.00,,,0.00,35,Wunderground v.1.15,2013-07-04 10:38:00,
2013-07-04 06:44:00,74.2,72.4,30.23,WNW,290,0.0,2.0,94,0.00,,,0.00,37,Wunderground v.1.15,2013-07-04 10:44:00,
2013-07-04 06:49:00,74.3,72.8,30.23,West,281,3.0,4.0,95,0.00,,,0.00,35,Wunderground v.1.15,2013-07-04 10:49:00,
2013-07-04 06:54:00,74.3,72.8,30.23,West,273,0.0,5.0,95,0.00,,,0.00,49,Wunderground v.1.15,2013-07-04 10:54:00,
2013-07-04 06:59:00,74.3,72.8,30.23,West,273,0.0,5.0,95,0.00,,,0.00,44,Wunderground v.1.15,2013-07-04 10:59:00,
2013-07-04 07:04:00,74.4,72.9,30.23,West,263,0.0,4.0,95,0.00,,,0.00,47,Wunderground v.1.15,2013-07-04 11:04:00,
2013-07-04 07:09:00,74.4,72.9,30.23,SW,234,0.0,0.0,95,0.00,,,0.00,53,Wunderground v.1.15,2013-07-04 11:09:00,
2013-07-04 07:14:00,74.5,73.0,30.23,WSW,248,0.0,3.0,95,0.00,,,0.00,54,Wunderground v.1.15,2013-07-04 11:14:00,
2013-07-04 07:19:00,74.6,73.1,30.24,WSW,255,0.0,0.0,95,0.00,,,0.00,51,Wunderground v.1.15,2013-07-04 11:19:00,
2013-07-04 07:24:00,74.6,73.1,30.24,WSW,256,0.0,2.0,95,0.00,,,0.00,74,Wunderground v.1.15,2013-07-04 11:24:00,
2013-07-04 07:29:00,74.8,73.3,30.24,West,260,2.0,4.0,95,0.00,,,0.00,79,Wunderground v.1.15,2013-07-04 11:29:00,
2013-07-04 07:34:00,74.9,73.4,30.24,West,270,0.0,5.0,95,0.00,,,0.00,88,Wunderground v.1.15,2013-07-04 11:34:00,
2013-07-04 07:39:00,75.0,73.5,30.24,WNW,283,0.0,1.0,95,0.00,,,0.00,90,Wunderground v.1.15,2013-07-04 11:39:00,
2013-07-04 07:44:00,75.1,73.6,30.24,WNW,283,0.0,3.0,95,0.00,,,0.00,86,Wunderground v.1.15,2013-07-04 11:44:00,
2013-07-04 07:49:00,75.2,73.7,30.24,WNW,287,0.0,6.0,95,0.00,,,0.00,95,Wunderground v.1.15,2013-07-04 11:49:00,
2013-07-04 07:54:00,75.3,73.8,30.25,WNW,286,0.0,2.0,95,0.00,,,0.00,67,Wunderground v.1.15,2013-07-04 11:54:00,
2013-07-04 07:59:00,75.3,73.8,30.25,WNW,284,0.0,1.0,95,0.00,,,0.00,83,Wunderground v.1.15,2013-07-04 11:59:00,
2013-07-04 08:04:00,75.4,73.9,30.25,West,261,0.0,5.0,95,0.00,,,0.00,146,Wunderground v.1.15,2013-07-04 12:04:00,
2013-07-04 08:10:00,75.5,74.0,30.25,West,276,0.0,1.0,95,0.00,,,0.00,141,Wunderground v.1.15,2013-07-04 12:10:00,
2013-07-04 08:15:00,75.7,74.2,30.25,West,275,0.0,1.0,95,0.00,,,0.00,160,Wunderground v.1.15,2013-07-04 12:15:00,
2013-07-04 08:19:00,75.9,74.4,30.25,West,271,0.0,0.0,95,0.00,,,0.00,214,Wunderground v.1.15,2013-07-04 12:19:00,
2013-07-04 08:24:00,76.1,74.6,30.24,West,271,0.0,0.0,95,0.00,,,0.00,134,Wunderground v.1.15,2013-07-04 12:24:00,
2013-07-04 08:29:00,76.3,74.8,30.24,West,273,0.0,0.0,95,0.00,,,0.00,118,Wunderground v.1.15,2013-07-04 12:29:00,
2013-07-04 08:34:00,76.5,75.3,30.24,West,272,0.0,0.0,96,0.00,,,0.00,216,Wunderground v.1.15,2013-07-04 12:34:00,
2013-07-04 08:40:00,76.8,75.3,30.24,West,277,0.0,1.0,95,0.00,,,0.00,200,Wunderground v.1.15,2013-07-04 12:40:00,
2013-07-04 08:44:00,77.0,75.5,30.24,West,260,0.0,4.0,95,0.00,,,0.00,155,Wunderground v.1.15,2013-07-04 12:44:00,
2013-07-04 08:50:00,77.0,75.1,30.24,WSW,238,3.0,5.0,94,0.00,,,0.00,179,Wunderground v.1.15,2013-07-04 12:50:00,
2013-07-04 08:54:00,77.1,75.2,30.24,WNW,300,0.0,6.0,94,0.00,,,0.00,221,Wunderground v.1.15,2013-07-04 12:54:00,
2013-07-04 09:00:00,77.3,75.4,30.24,West,279,0.0,0.0,94,0.00,,,0.00,221,Wunderground v.1.15,2013-07-04 13:00:00,
2013-07-04 09:05:00,77.6,75.7,30.24,West,276,0.0,6.0,94,0.00,,,0.00,232,Wunderground v.1.15,2013-07-04 13:05:00,
2013-07-04 09:10:00,78.0,75.8,30.24,West,275,0.0,4.0,93,0.00,,,0.00,276,Wunderground v.1.15,2013-07-04 13:10:00,
2013-07-04 09:16:00,78.4,75.9,30.24,WNW,282,0.0,6.0,92,0.00,,,0.00,297,Wunderground v.1.15,2013-07-04 13:16:00,
2013-07-04 09:21:00,78.7,76.2,30.24,WSW,254,0.0,0.0,92,0.00,,,0.00,323,Wunderground v.1.15,2013-07-04 13:21:00,
2013-07-04 09:26:00,79.3,76.4,30.24,SW,222,0.0,3.0,91,0.00,,,0.00,234,Wunderground v.1.15,2013-07-04 13:26:00,
2013-07-04 09:31:00,79.5,76.3,30.24,West,267,0.0,2.0,90,0.00,,,0.00,301,Wunderground v.1.15,2013-07-04 13:31:00,
2013-07-04 09:36:00,79.8,76.3,30.24,West,264,0.0,2.0,89,0.00,,,0.00,246,Wunderground v.1.15,2013-07-04 13:36:00,
2013-07-04 09:41:00,80.2,76.7,30.24,West,273,0.0,6.0,89,0.00,,,0.00,357,Wunderground v.1.15,2013-07-04 13:41:00,
2013-07-04 09:46:00,80.5,76.6,30.24,SW,227,0.0,7.0,88,0.00,,,0.00,334,Wunderground v.1.15,2013-07-04 13:46:00,
2013-07-04 09:51:00,80.8,76.6,30.24,WNW,296,1.0,5.0,87,0.00,,,0.00,283,Wunderground v.1.15,2013-07-04 13:51:00,
2013-07-04 09:56:00,81.0,76.4,30.24,WNW,299,0.0,6.0,86,0.00,,,0.00,329,Wunderground v.1.15,2013-07-04 13:56:00,
2013-07-04 10:01:00,81.4,76.8,30.24,SW,229,0.0,1.0,86,0.00,,,0.00,837,Wunderground v.1.15,2013-07-04 14:01:00,
2013-07-04 10:06:00,81.8,76.5,30.24,WNW,300,0.0,10.0,84,0.00,,,0.00,967,Wunderground v.1.15,2013-07-04 14:06:00,
2013-07-04 10:11:00,82.1,76.4,30.24,WNW,294,0.0,4.0,83,0.00,,,0.00,399,Wunderground v.1.15,2013-07-04 14:11:00,
2013-07-04 10:16:00,82.6,76.5,30.24,WNW,301,0.0,5.0,82,0.00,,,0.00,399,Wunderground v.1.15,2013-07-04 14:16:00,
2013-07-04 10:21:00,83.0,76.9,30.24,West,275,4.0,6.0,82,0.00,,,0.00,916,Wunderground v.1.15,2013-07-04 14:21:00,
2013-07-04 10:26:00,83.4,77.0,30.24,West,273,0.0,6.0,81,0.00,,,0.00,186,Wunderground v.1.15,2013-07-04 14:26:00,
2013-07-04 10:31:00,83.3,76.9,30.24,NW,306,0.0,1.0,81,0.00,,,0.00,1014,Wunderground v.1.15,2013-07-04 14:31:00,
2013-07-04 10:36:00,83.4,76.6,30.24,West,276,0.0,5.0,80,0.00,,,0.00,258,Wunderground v.1.15,2013-07-04 14:36:00,
2013-07-04 10:41:00,83.7,77.2,30.24,West,267,0.0,1.0,81,0.00,,,0.00,882,Wunderground v.1.15,2013-07-04 14:41:00,
2013-07-04 10:46:00,84.0,76.8,30.24,West,270,0.0,7.0,79,0.00,,,0.00,209,Wunderground v.1.15,2013-07-04 14:46:00,
2013-07-04 10:51:00,83.9,76.3,30.24,West,271,2.0,6.0,78,0.00,,,0.00,316,Wunderground v.1.15,2013-07-04 14:51:00,
2013-07-04 10:56:00,84.1,76.5,30.24,NW,317,3.0,6.0,78,0.00,,,0.00,316,Wunderground v.1.15,2013-07-04 14:56:00,
2013-07-04 11:01:00,84.2,76.2,30.24,WSW,240,0.0,2.0,77,0.00,,,0.00,250,Wunderground v.1.15,2013-07-04 15:01:00,
2013-07-04 11:06:00,84.0,76.4,30.23,SW,227,0.0,8.0,78,0.00,,,0.00,197,Wunderground v.1.15,2013-07-04 15:06:00,
2013-07-04 11:11:00,84.3,76.7,30.24,SW,225,0.0,0.0,78,0.00,,,0.00,956,Wunderground v.1.15,2013-07-04 15:11:00,
2013-07-04 11:16:00,83.6,75.2,30.23,SSE,157,0.0,5.0,76,0.00,,,0.00,167,Wunderground v.1.15,2013-07-04 15:16:00,
2013-07-04 11:21:00,82.7,74.8,30.23,SSE,166,0.0,2.0,77,0.00,,,0.00,1039,Wunderground v.1.15,2013-07-04 15:21:00,
2013-07-04 11:26:00,82.2,74.7,30.23,SSE,163,0.0,7.0,78,0.00,,,0.00,550,Wunderground v.1.15,2013-07-04 15:26:00,
2013-07-04 11:31:00,81.7,74.5,30.23,South,173,1.0,6.0,79,0.00,,,0.00,221,Wunderground v.1.15,2013-07-04 15:31:00,
2013-07-04 11:36:00,81.3,74.5,30.23,South,179,0.0,6.0,80,0.00,,,0.00,993,Wunderground v.1.15,2013-07-04 15:36:00,
2013-07-04 11:41:00,81.4,74.6,30.23,South,175,0.0,4.0,80,0.00,,,0.00,1013,Wunderground v.1.15,2013-07-04 15:41:00,
2013-07-04 11:46:00,81.6,74.8,30.23,SSW,202,5.0,5.0,80,0.00,,,0.00,960,Wunderground v.1.15,2013-07-04 15:46:00,
2013-07-04 11:51:00,82.3,75.1,30.22,SSE,157,0.0,4.0,79,0.00,,,0.00,1023,Wunderground v.1.15,2013-07-04 15:51:00,
2013-07-04 11:56:00,82.2,74.7,30.23,South,186,0.0,7.0,78,0.00,,,0.00,257,Wunderground v.1.15,2013-07-04 15:56:00,
2013-07-04 12:01:00,81.8,74.3,30.23,SSE,168,0.0,1.0,78,0.00,,,0.00,1155,Wunderground v.1.15,2013-07-04 16:01:00,
2013-07-04 12:07:00,81.5,74.7,30.23,SSW,207,0.0,4.0,80,0.00,,,0.00,448,Wunderground v.1.15,2013-07-04 16:07:00,
2013-07-04 12:12:00,81.5,74.0,30.22,SSW,209,0.0,4.0,78,0.00,,,0.00,295,Wunderground v.1.15,2013-07-04 16:12:00,
2013-07-04 12:17:00,81.2,74.4,30.22,SSW,194,0.0,5.0,80,0.00,,,0.00,158,Wunderground v.1.15,2013-07-04 16:17:00,
2013-07-04 12:22:00,81.0,74.2,30.22,South,182,4.0,4.0,80,0.00,,,0.00,327,Wunderground v.1.15,2013-07-04 16:22:00,
2013-07-04 12:27:00,81.0,74.6,30.22,SSW,192,0.0,7.0,81,0.00,,,0.00,464,Wunderground v.1.15,2013-07-04 16:27:00,
2013-07-04 12:32:00,81.4,75.4,30.22,SSE,161,2.0,5.0,82,0.00,,,0.00,983,Wunderground v.1.15,2013-07-04 16:32:00,
2013-07-04 12:37:00,81.9,75.9,30.22,South,182,0.0,8.0,82,0.00,,,0.00,981,Wunderground v.1.15,2013-07-04 16:37:00,
2013-07-04 12:42:00,82.6,75.8,30.22,SSW,200,4.0,7.0,80,0.00,,,0.00,1025,Wunderground v.1.15,2013-07-04 16:42:00,
2013-07-04 12:47:00,82.9,75.3,30.22,SSW,196,0.0,7.0,78,0.00,,,0.00,926,Wunderground v.1.15,2013-07-04 16:47:00,
2013-07-04 12:52:00,83.0,75.4,30.22,South,182,0.0,6.0,78,0.00,,,0.00,986,Wunderground v.1.15,2013-07-04 16:52:00,
2013-07-04 12:57:00,83.3,75.3,30.21,SSE,161,4.0,10.0,77,0.00,,,0.00,1060,Wunderground v.1.15,2013-07-04 16:57:00,
2013-07-04 13:02:00,83.4,76.2,30.21,SSW,206,0.0,8.0,79,0.00,,,0.00,1020,Wunderground v.1.15,2013-07-04 17:02:00,
2013-07-04 13:07:00,84.0,76.8,30.21,South,175,0.0,8.0,79,0.00,,,0.00,1011,Wunderground v.1.15,2013-07-04 17:07:00,
2013-07-04 13:12:00,84.0,76.4,30.21,South,173,0.0,6.0,78,0.00,,,0.00,1028,Wunderground v.1.15,2013-07-04 17:12:00,
2013-07-04 13:17:00,84.1,75.7,30.21,South,178,0.0,10.0,76,0.00,,,0.00,1071,Wunderground v.1.15,2013-07-04 17:17:00,
2013-07-04 13:22:00,84.4,75.6,30.21,SSW,198,3.0,7.0,75,0.00,,,0.00,1032,Wunderground v.1.15,2013-07-04 17:22:00,
2013-07-04 13:27:00,84.4,75.2,30.21,South,186,0.0,9.0,74,0.00,,,0.00,278,Wunderground v.1.15,2013-07-04 17:27:00,
2013-07-04 13:32:00,84.1,75.7,30.21,SW,232,8.0,10.0,76,0.00,,,0.00,1102,Wunderground v.1.15,2013-07-04 17:32:00,
2013-07-04 13:37:00,83.7,75.3,30.21,SSW,205,2.0,10.0,76,0.00,,,0.00,1129,Wunderground v.1.15,2013-07-04 17:37:00,
2013-07-04 13:42:00,83.1,74.7,30.21,SSW,207,3.0,7.0,76,0.00,,,0.00,202,Wunderground v.1.15,2013-07-04 17:42:00,
2013-07-04 13:48:00,82.8,74.8,30.21,SSW,207,3.0,8.0,77,0.00,,,0.00,239,Wunderground v.1.15,2013-07-04 17:48:00,
2013-07-04 13:53:00,82.5,74.6,30.21,South,186,2.0,7.0,77,0.00,,,0.00,239,Wunderground v.1.15,2013-07-04 17:53:00,
2013-07-04 13:58:00,81.6,74.1,30.21,South,182,4.0,10.0,78,0.00,,,0.00,193,Wunderground v.1.15,2013-07-04 17:58:00,
2013-07-04 14:03:00,81.0,73.5,30.20,SW,219,0.0,6.0,78,0.00,,,0.00,199,Wunderground v.1.15,2013-07-04 18:03:00,
2013-07-04 14:08:00,80.9,73.8,30.20,SSW,194,0.0,6.0,79,0.00,,,0.00,304,Wunderground v.1.15,2013-07-04 18:08:00,
2013-07-04 14:13:00,81.4,74.6,30.20,South,187,5.0,5.0,80,0.00,,,0.00,287,Wunderground v.1.15,2013-07-04 18:13:00,
2013-07-04 14:18:00,81.5,74.4,30.20,South,180,0.0,6.0,79,0.00,,,0.00,229,Wunderground v.1.15,2013-07-04 18:18:00,
2013-07-04 14:23:00,81.7,75.3,30.20,SSW,192,0.0,4.0,81,0.00,,,0.00,1088,Wunderground v.1.15,2013-07-04 18:23:00,
2013-07-04 14:28:00,82.4,75.2,30.20,South,178,0.0,6.0,79,0.00,,,0.00,1004,Wunderground v.1.15,2013-07-04 18:28:00,
2013-07-04 14:33:00,83.8,76.6,30.20,SW,225,1.0,7.0,79,0.00,,,0.00,995,Wunderground v.1.15,2013-07-04 18:33:00,
2013-07-04 14:34:00,83.9,76.7,30.20,SW,225,8.0,8.0,79,0.00,,,0.00,1009,Wunderground v.1.15,2013-07-04 18:34:00,
2013-07-04 14:39:00,84.9,77.3,30.19,SSW,205,2.0,8.0,78,0.00,,,0.00,1009,Wunderground v.1.15,2013-07-04 18:39:00,
2013-07-04 14:44:00,85.4,76.6,30.19,SSW,213,7.0,8.0,75,0.00,,,0.00,1065,Wunderground v.1.15,2013-07-04 18:44:00,
2013-07-04 14:49:00,85.0,75.4,30.19,SSW,207,4.0,8.0,73,0.00,,,0.00,139,Wunderground v.1.15,2013-07-04 18:49:00,
2013-07-04 14:54:00,84.2,75.4,30.19,SW,225,0.0,9.0,75,0.00,,,0.00,1018,Wunderground v.1.15,2013-07-04 18:54:00,
2013-07-04 14:59:00,84.1,74.9,30.19,SW,221,8.0,9.0,74,0.00,,,0.00,195,Wunderground v.1.15,2013-07-04 18:59:00,
2013-07-04 15:04:00,83.5,74.7,30.19,SSW,201,0.0,8.0,75,0.00,,,0.00,290,Wunderground v.1.15,2013-07-04 19:04:00,
2013-07-04 15:09:00,83.3,75.3,30.19,SSW,200,1.0,8.0,77,0.00,,,0.00,244,Wunderground v.1.15,2013-07-04 19:09:00,
2013-07-04 15:14:00,83.0,74.6,30.18,SSW,202,0.0,7.0,76,0.00,,,0.00,160,Wunderground v.1.15,2013-07-04 19:14:00,
2013-07-04 15:19:00,82.7,74.8,30.18,SSW,202,4.0,7.0,77,0.00,,,0.00,176,Wunderground v.1.15,2013-07-04 19:19:00,
2013-07-04 15:24:00,82.5,74.9,30.18,SSW,209,3.0,7.0,78,0.00,,,0.00,933,Wunderground v.1.15,2013-07-04 19:24:00,
2013-07-04 15:29:00,82.9,75.3,30.18,South,189,0.0,7.0,78,0.00,,,0.00,158,Wunderground v.1.15,2013-07-04 19:29:00,
2013-07-04 15:34:00,83.0,75.4,30.18,SSW,211,5.0,7.0,78,0.00,,,0.00,935,Wunderground v.1.15,2013-07-04 19:34:00,
2013-07-04 15:39:00,83.5,75.9,30.18,SSW,210,0.0,7.0,78,0.00,,,0.00,118,Wunderground v.1.15,2013-07-04 19:39:00,
2013-07-04 15:44:00,83.6,76.0,30.18,SW,226,2.0,10.0,78,0.00,,,0.00,253,Wunderground v.1.15,2013-07-04 19:44:00,
2013-07-04 15:49:00,83.4,75.4,30.18,South,188,2.0,10.0,77,0.00,,,0.00,206,Wunderground v.1.15,2013-07-04 19:49:00,
2013-07-04 15:54:00,83.1,75.9,30.17,SW,217,10.0,10.0,79,0.00,,,0.00,174,Wunderground v.1.15,2013-07-04 19:54:00,
2013-07-04 15:59:00,83.2,76.0,30.17,SW,217,0.0,10.0,79,0.00,,,0.00,814,Wunderground v.1.15,2013-07-04 19:59:00,
2013-07-04 16:04:00,83.6,76.4,30.17,SW,236,0.0,11.0,79,0.00,,,0.00,185,Wunderground v.1.15,2013-07-04 20:04:00,
2013-07-04 16:09:00,83.4,76.6,30.17,SSW,196,1.0,11.0,80,0.00,,,0.00,844,Wunderground v.1.15,2013-07-04 20:09:00,
2013-07-04 16:14:00,83.5,76.3,30.17,SSW,205,7.0,11.0,79,0.00,,,0.00,141,Wunderground v.1.15,2013-07-04 20:14:00,
2013-07-04 16:19:00,83.2,75.6,30.17,SW,223,0.0,11.0,78,0.00,,,0.00,93,Wunderground v.1.15,2013-07-04 20:19:00,
2013-07-04 16:24:00,82.9,75.3,30.17,WSW,240,9.0,13.0,78,0.00,,,0.00,172,Wunderground v.1.15,2013-07-04 20:24:00,
2013-07-04 16:29:00,82.5,74.9,30.17,SSW,209,0.0,13.0,78,0.00,,,0.00,174,Wunderground v.1.15,2013-07-04 20:29:00,
2013-07-04 16:34:00,82.3,75.5,30.17,SSW,213,7.0,10.0,80,0.00,,,0.00,137,Wunderground v.1.15,2013-07-04 20:34:00,
2013-07-04 16:39:00,82.7,76.3,30.16,South,182,0.0,11.0,81,0.00,,,0.00,664,Wunderground v.1.15,2013-07-04 20:39:00,
2013-07-04 16:44:00,83.3,76.9,30.16,SW,234,6.0,17.0,81,0.00,,,0.00,640,Wunderground v.1.15,2013-07-04 20:44:00,
2013-07-04 16:50:00,83.8,77.0,30.16,South,171,0.0,4.0,80,0.00,,,0.00,545,Wunderground v.1.15,2013-07-04 20:50:00,
2013-07-04 16:55:00,84.0,77.2,30.16,SSW,213,8.0,12.0,80,0.00,,,0.00,545,Wunderground v.1.15,2013-07-04 20:55:00,
2013-07-04 17:00:00,84.0,77.2,30.16,SSW,206,7.0,10.0,80,0.00,,,0.00,125,Wunderground v.1.15,2013-07-04 21:00:00,
2013-07-04 17:05:00,83.8,76.6,30.16,South,182,0.0,12.0,79,0.00,,,0.00,218,Wunderground v.1.15,2013-07-04 21:05:00,
2013-07-04 17:10:00,83.7,76.9,30.16,SW,232,0.0,5.0,80,0.00,,,0.00,584,Wunderground v.1.15,2013-07-04 21:10:00,
2013-07-04 17:15:00,83.8,77.0,30.16,SSW,196,0.0,12.0,80,0.00,,,0.00,464,Wunderground v.1.15,2013-07-04 21:15:00,
2013-07-04 17:20:00,84.0,77.2,30.16,WSW,238,0.0,2.0,80,0.00,,,0.00,111,Wunderground v.1.15,2013-07-04 21:20:00,
2013-07-04 17:25:00,84.1,77.3,30.16,SW,221,0.0,14.0,80,0.00,,,0.00,98,Wunderground v.1.15,2013-07-04 21:25:00,
2013-07-04 17:30:00,84.0,76.8,30.16,SSW,211,5.0,5.0,79,0.00,,,0.00,132,Wunderground v.1.15,2013-07-04 21:30:00,
2013-07-04 17:35:00,83.8,76.6,30.16,SSW,206,2.0,10.0,79,0.00,,,0.00,86,Wunderground v.1.15,2013-07-04 21:35:00,
2013-07-04 17:40:00,83.6,76.4,30.16,SSW,193,0.0,5.0,79,0.00,,,0.00,72,Wunderground v.1.15,2013-07-04 21:40:00,
2013-07-04 17:45:00,83.4,76.6,30.16,SSW,202,10.0,10.0,80,0.00,,,0.00,162,Wunderground v.1.15,2013-07-04 21:45:00,
2013-07-04 17:50:00,83.3,76.5,30.16,SW,236,9.0,13.0,80,0.00,,,0.00,62,Wunderground v.1.15,2013-07-04 21:50:00,
2013-07-04 17:55:00,83.2,76.8,30.16,South,188,11.0,13.0,81,0.00,,,0.00,88,Wunderground v.1.15,2013-07-04 21:55:00,
2013-07-04 18:00:00,83.2,76.8,30.16,SSW,198,7.0,7.0,81,0.00,,,0.00,343,Wunderground v.1.15,2013-07-04 22:00:00,
2013-07-04 18:05:00,83.3,76.9,30.16,SW,234,0.0,12.0,81,0.00,,,0.00,301,Wunderground v.1.15,2013-07-04 22:05:00,
2013-07-04 18:10:00,83.2,76.8,30.16,SSW,194,0.0,9.0,81,0.00,,,0.00,339,Wunderground v.1.15,2013-07-04 22:10:00,
2013-07-04 18:11:00,83.2,76.8,30.16,SSW,194,0.0,9.0,81,0.00,,,0.00,339,Wunderground v.1.15,2013-07-04 22:11:00,
2013-07-04 18:16:00,83.2,76.8,30.16,SW,221,0.0,14.0,81,0.00,,,0.00,332,Wunderground v.1.15,2013-07-04 22:16:00,
2013-07-04 18:21:00,83.2,76.8,30.16,SW,217,7.0,9.0,81,0.00,,,0.00,123,Wunderground v.1.15,2013-07-04 22:21:00,
2013-07-04 18:26:00,83.1,76.7,30.16,SSW,211,5.0,12.0,81,0.00,,,0.00,121,Wunderground v.1.15,2013-07-04 22:26:00,
2013-07-04 18:31:00,83.0,76.6,30.16,SSW,204,0.0,11.0,81,0.00,,,0.00,98,Wunderground v.1.15,2013-07-04 22:31:00,
2013-07-04 18:36:00,82.9,76.5,30.16,SSW,213,7.0,11.0,81,0.00,,,0.00,70,Wunderground v.1.15,2013-07-04 22:36:00,
2013-07-04 18:41:00,82.6,76.2,30.16,SW,214,3.0,10.0,81,0.00,,,0.00,104,Wunderground v.1.15,2013-07-04 22:41:00,
2013-07-04 18:46:00,82.4,75.6,30.16,SSW,195,0.0,10.0,80,0.00,,,0.00,47,Wunderground v.1.15,2013-07-04 22:46:00,
2013-07-04 18:51:00,82.1,75.7,30.16,SSW,206,10.0,10.0,81,0.00,,,0.00,40,Wunderground v.1.15,2013-07-04 22:51:00,
2013-07-04 18:56:00,82.0,75.6,30.16,SW,219,0.0,10.0,81,0.00,,,0.00,30,Wunderground v.1.15,2013-07-04 22:56:00,
2013-07-04 19:01:00,81.8,75.4,30.16,South,187,4.0,6.0,81,0.00,,,0.00,37,Wunderground v.1.15,2013-07-04 23:01:00,
2013-07-04 19:06:00,81.7,75.7,30.16,SSW,200,0.0,11.0,82,0.00,,,0.00,33,Wunderground v.1.15,2013-07-04 23:06:00,
2013-07-04 19:11:00,81.6,75.9,30.16,SW,228,4.0,12.0,83,0.00,,,0.00,54,Wunderground v.1.15,2013-07-04 23:11:00,
2013-07-04 19:17:00,81.5,75.8,30.16,SW,218,13.0,16.0,83,0.00,,,0.00,23,Wunderground v.1.15,2013-07-04 23:17:00,
2013-07-04 19:22:00,81.4,75.7,30.16,SW,229,1.0,8.0,83,0.00,,,0.00,25,Wunderground v.1.15,2013-07-04 23:22:00,
2013-07-04 19:27:00,81.3,76.0,30.16,SW,223,6.0,13.0,84,0.00,,,0.00,26,Wunderground v.1.15,2013-07-04 23:27:00,
2013-07-04 19:32:00,81.2,75.9,30.17,SW,229,0.0,10.0,84,0.00,,,0.00,25,Wunderground v.1.15,2013-07-04 23:32:00,
2013-07-04 19:37:00,81.0,76.1,30.17,SSW,199,0.0,12.0,85,0.00,,,0.00,23,Wunderground v.1.15,2013-07-04 23:37:00,
2013-07-04 19:42:00,80.9,76.0,30.16,SW,233,6.0,12.0,85,0.00,,,0.00,21,Wunderground v.1.15,2013-07-04 23:42:00,
2013-07-04 19:47:00,80.8,75.9,30.17,SSW,205,0.0,12.0,85,0.00,,,0.00,19,Wunderground v.1.15,2013-07-04 23:47:00,
2013-07-04 19:52:00,80.7,75.8,30.17,SSW,205,6.0,7.0,85,0.00,,,0.00,18,Wunderground v.1.15,2013-07-04 23:52:00,
2013-07-04 19:57:00,80.6,75.7,30.17,SW,216,0.0,8.0,85,0.00,,,0.00,16,Wunderground v.1.15,2013-07-04 23:57:00,
2013-07-04 20:02:00,80.5,75.6,30.17,SW,221,3.0,7.0,85,0.00,,,0.00,14,Wunderground v.1.15,2013-07-05 00:02:00,
2013-07-04 20:07:00,80.5,75.6,30.17,SSW,200,0.0,13.0,85,0.00,,,0.00,12,Wunderground v.1.15,2013-07-05 00:07:00,
2013-07-04 20:12:00,80.5,75.6,30.17,SSW,208,0.0,7.0,85,0.00,,,0.00,9,Wunderground v.1.15,2013-07-05 00:12:00,
2013-07-04 20:17:00,80.4,75.5,30.17,SSW,199,3.0,8.0,85,0.00,,,0.00,7,Wunderground v.1.15,2013-07-05 00:17:00,
2013-07-04 20:22:00,80.3,75.4,30.17,SW,229,0.0,8.0,85,0.00,,,0.00,5,Wunderground v.1.15,2013-07-05 00:22:00,
2013-07-04 20:27:00,80.3,75.4,30.18,SW,215,0.0,8.0,85,0.00,,,0.00,0,Wunderground v.1.15,2013-07-05 00:27:00,
2013-07-04 20:33:00,80.1,75.2,30.18,SW,217,0.0,7.0,85,0.00,,,0.00,0,Wunderground v.1.15,2013-07-05 00:33:00,
2013-07-04 20:38:00,79.9,75.0,30.18,SW,217,0.0,9.0,85,0.00,,,0.00,0,Wunderground v.1.15,2013-07-05 00:38:00,
2013-07-04 20:43:00,79.8,74.9,30.18,SW,219,3.0,7.0,85,0.00,,,0.00,0,Wunderground v.1.15,2013-07-05 00:43:00,
2013-07-04 20:48:00,79.6,74.7,30.18,SSW,211,0.0,7.0,85,0.00,,,0.00,0,Wunderground v.1.15,2013-07-05 00:48:00,
2013-07-04 20:53:00,79.5,74.6,30.17,SW,215,7.0,7.0,85,0.00,,,0.00,0,Wunderground v.1.15,2013-07-05 00:53:00,
2013-07-04 20:58:00,79.4,74.1,30.18,SSW,213,0.0,8.0,84,0.00,,,0.00,0,Wunderground v.1.15,2013-07-05 00:58:00,
2013-07-04 21:03:00,79.4,74.1,30.18,SW,228,0.0,6.0,84,0.00,,,0.00,0,Wunderground v.1.15,2013-07-05 01:03:00,
2013-07-04 21:08:00,79.3,74.0,30.18,SW,225,0.0,6.0,84,0.00,,,0.00,0,Wunderground v.1.15,2013-07-05 01:08:00,
2013-07-04 21:13:00,79.2,74.3,30.18,SSW,211,0.0,7.0,85,0.00,,,0.00,0,Wunderground v.1.15,2013-07-05 01:13:00,
2013-07-04 21:18:00,79.1,74.2,30.18,SW,227,1.0,7.0,85,0.00,,,0.00,0,Wunderground v.1.15,2013-07-05 01:18:00,
2013-07-04 21:23:00,79.0,74.1,30.18,SW,227,0.0,1.0,85,0.00,,,0.00,0,Wunderground v.1.15,2013-07-05 01:23:00,
2013-07-04 21:28:00,78.9,74.0,30.18,SW,223,0.0,4.0,85,0.00,,,0.00,0,Wunderground v.1.15,2013-07-05 01:28:00,
2013-07-04 21:33:00,78.8,73.9,30.18,SW,221,6.0,7.0,85,0.00,,,0.00,0,Wunderground v.1.15,2013-07-05 01:33:00,
2013-07-04 21:38:00,78.7,73.8,30.18,WSW,248,5.0,7.0,85,0.00,,,0.00,0,Wunderground v.1.15,2013-07-05 01:38:00,
2013-07-04 21:43:00,78.7,73.8,30.19,WSW,243,0.0,1.0,85,0.00,,,0.00,0,Wunderground v.1.15,2013-07-05 01:43:00,
2013-07-04 21:48:00,78.5,73.6,30.19,SW,226,0.0,4.0,85,0.00,,,0.00,0,Wunderground v.1.15,2013-07-05 01:48:00,
2013-07-04 21:53:00,78.4,73.5,30.19,SSW,213,4.0,4.0,85,0.00,,,0.00,0,Wunderground v.1.15,2013-07-05 01:53:00,
2013-07-04 21:58:00,78.3,73.4,30.19,SSW,213,0.0,4.0,85,0.00,,,0.00,0,Wunderground v.1.15,2013-07-05 01:58:00,
2013-07-04 22:03:00,78.2,73.3,30.19,SSW,212,0.0,0.0,85,0.00,,,0.00,0,Wunderground v.1.15,2013-07-05 02:03:00,
2013-07-04 22:08:00,78.1,73.2,30.19,SW,226,2.0,7.0,85,0.00,,,0.00,0,Wunderground v.1.15,2013-07-05 02:08:00,
2013-07-04 22:14:00,78.0,73.5,30.19,SW,229,0.0,5.0,86,0.00,,,0.00,0,Wunderground v.1.15,2013-07-05 02:14:00,
2013-07-04 22:19:00,77.9,73.4,30.20,SW,220,0.0,6.0,86,0.00,,,0.00,0,Wunderground v.1.15,2013-07-05 02:19:00,
2013-07-04 22:24:00,77.8,73.3,30.19,SW,221,0.0,2.0,86,0.00,,,0.00,0,Wunderground v.1.15,2013-07-05 02:24:00,
2013-07-04 22:29:00,77.7,73.2,30.20,SW,219,0.0,4.0,86,0.00,,,0.00,0,Wunderground v.1.15,2013-07-05 02:29:00,
2013-07-04 22:34:00,77.6,73.1,30.20,WSW,241,0.0,5.0,86,0.00,,,0.00,0,Wunderground v.1.15,2013-07-05 02:34:00,
2013-07-04 22:39:00,77.5,73.0,30.20,SW,227,0.0,7.0,86,0.00,,,0.00,0,Wunderground v.1.15,2013-07-05 02:39:00,
2013-07-04 22:44:00,77.4,72.9,30.20,SW,221,0.0,4.0,86,0.00,,,0.00,0,Wunderground v.1.15,2013-07-05 02:44:00,
2013-07-04 22:49:00,77.3,72.8,30.20,SW,232,4.0,8.0,86,0.00,,,0.00,0,Wunderground v.1.15,2013-07-05 02:49:00,
2013-07-04 22:54:00,77.1,72.6,30.20,SW,235,1.0,3.0,86,0.00,,,0.00,0,Wunderground v.1.15,2013-07-05 02:54:00,
2013-07-04 22:59:00,77.0,72.5,30.20,SW,226,0.0,5.0,86,0.00,,,0.00,0,Wunderground v.1.15,2013-07-05 02:59:00,
2013-07-04 23:04:00,77.0,72.5,30.20,SSW,201,0.0,6.0,86,0.00,,,0.00,0,Wunderground v.1.15,2013-07-05 03:04:00,
2013-07-04 23:09:00,76.9,72.4,30.20,WSW,252,0.0,6.0,86,0.00,,,0.00,0,Wunderground v.1.15,2013-07-05 03:09:00,
2013-07-04 23:14:00,76.8,72.3,30.20,WSW,241,0.0,3.0,86,0.00,,,0.00,0,Wunderground v.1.15,2013-07-05 03:14:00,
2013-07-04 23:19:00,76.7,72.2,30.20,SW,231,0.0,0.0,86,0.00,,,0.00,0,Wunderground v.1.15,2013-07-05 03:19:00,
2013-07-04 23:25:00,76.7,72.2,30.20,SW,223,0.0,5.0,86,0.00,,,0.00,0,Wunderground v.1.15,2013-07-05 03:25:00,
2013-07-04 23:30:00,76.6,72.4,30.20,SSW,202,0.0,1.0,87,0.00,,,0.00,0,Wunderground v.1.15,2013-07-05 03:30:00,
2013-07-04 23:35:00,76.6,72.4,30.20,SW,214,0.0,5.0,87,0.00,,,0.00,0,Wunderground v.1.15,2013-07-05 03:35:00,
2013-07-04 23:40:00,76.5,72.3,30.20,SW,214,0.0,0.0,87,0.00,,,0.00,0,Wunderground v.1.15,2013-07-05 03:40:00,
2013-07-04 23:45:00,76.5,72.3,30.20,WSW,238,0.0,4.0,87,0.00,,,0.00,0,Wunderground v.1.15,2013-07-05 03:45:00,
2013-07-04 23:50:00,76.4,72.2,30.20,SW,232,2.0,2.0,87,0.00,,,0.00,0,Wunderground v.1.15,2013-07-05 03:50:00,
2013-07-04 23:55:00,76.3,72.1,30.20,SW,236,0.0,7.0,87,0.00,,,0.00,0,Wunderground v.1.15,2013-07-05 03:55:00,